Weather History for KIDA - August, 2014

Change the Weather History Date:

Sunday, August 3, 2014

  Actual Average Record
Temperature  
Mean Temperature 73 °F 69 °F  
Max Temperature 93 °F 88 °F 99 °F (1961)
Min Temperature 52 °F 50 °F 42 °F (1987)
Degree Days  
Heating Degree Days 0 0  
Month to date heating degree days 0 0  
Since 1 June heating degree days 130 180  
Since 1 July heating degree days 2 27  
Cooling Degree Days 8 4  
Month to date cooling degree days 19 12  
Year to date cooling degree days 222 167  
Since 1 June cooling degree days 221 165  
Growing Degree Days 22 (Base 50)    
Moisture  
Dew Point 46 °F    
Average Humidity 50    
Maximum Humidity 83    
Minimum Humidity 16    
Precipitation  
Precipitation 0.00 in 0.01 in 0.89 in (1951)
Month to date precipitation T 0.04  
Year to date precipitation 3.95 6.48  
Sea Level Pressure  
Sea Level Pressure 29.99 in    
Wind  
Wind Speed 8 mph (North)    
Max Wind Speed 24 mph    
Max Gust Speed 33 mph    
Visibility 10 miles    
Events      
T = Trace of Precipitation, MM = Missing Value Source: NWS Daily Summary

Daily Weather History Graph

Daily Weather History Graph

Search for Another Location

Airport or City:

Trip Planner

Search our weather history database for the weather conditions in past years. The results will help you decide how hot, cold, wet, or windy it might be!

Date:

Astronomy

Aug. 03, 2014 Rise Set
Actual Time 6:20 AM MDT 8:48 PM MDT
Civil Twilight 5:47 AM MDT 9:20 PM MDT
Nautical Twilight 5:07 AM MDT 10:00 PM MDT
Astronomical Twilight 4:21 AM MDT 10:45 PM MDT
Moon 1:59 PM MDT (8/3) No Moon Set
Length of Visible Light 15h 32m
Length of Day
14h 28m
Waxing Crescent, 47% of the Moon is Illuminated
Aug 3
Waxing Crescent
Aug 3
First Quarter
Aug 10
Full
Aug 17
Last Quarter
Aug 25
New

Hourly Weather History & Observations

Time (MDT) Temp. Dew Point Humidity Pressure Visibility Wind Dir Wind Speed Gust Speed Precip Events Conditions
12:53 AM 57.0 °F 48.9 °F 74% 30.02 in 10.0 mi NNW 4.6 mph - N/A   Clear
2:53 AM 55.0 °F 48.0 °F 77% 30.01 in 10.0 mi North 4.6 mph - N/A   Clear
3:53 AM 53.1 °F 48.0 °F 83% 30.02 in 10.0 mi NNW 6.9 mph - N/A   Clear
4:53 AM 55.0 °F 48.9 °F 80% 30.02 in 10.0 mi North 8.1 mph - N/A   Clear
5:53 AM 54.0 °F 48.0 °F 80% 30.03 in 10.0 mi North 6.9 mph - N/A   Clear
6:53 AM 53.1 °F 46.9 °F 80% 30.03 in 10.0 mi Calm Calm - N/A   Clear
7:53 AM 60.1 °F 48.9 °F 67% 30.03 in 10.0 mi North 8.1 mph - N/A   Clear
8:53 AM 66.9 °F 48.9 °F 52% 30.05 in 10.0 mi North 8.1 mph - N/A   Clear
9:53 AM 75.0 °F 48.0 °F 38% 30.03 in 10.0 mi NNE 9.2 mph - N/A   Clear
10:53 AM 78.1 °F 48.9 °F 36% 30.04 in 10.0 mi North 12.7 mph - N/A   Clear
11:53 AM 82.9 °F 46.0 °F 27% 30.03 in 10.0 mi North 9.2 mph - N/A   Partly Cloudy
12:53 PM 88.0 °F 46.0 °F 23% 30.00 in 10.0 mi ENE 8.1 mph - N/A   Partly Cloudy
1:53 PM 90.0 °F 41.0 °F 18% 29.99 in 10.0 mi Variable 3.5 mph - N/A   Partly Cloudy
2:53 PM 91.0 °F 41.0 °F 17% 29.96 in 10.0 mi North 3.5 mph - N/A   Scattered Clouds
3:53 PM 91.9 °F 39.0 °F 16% 29.93 in 10.0 mi East 5.8 mph - N/A   Scattered Clouds
4:53 PM 91.9 °F 42.1 °F 18% 29.91 in 10.0 mi NNW 6.9 mph - N/A   Scattered Clouds
5:53 PM 88.0 °F 50.0 °F 27% 29.94 in 10.0 mi NW 17.3 mph 24.2 mph N/A   Scattered Clouds
6:53 PM 82.0 °F 44.1 °F 26% 29.95 in 7.0 mi North 15.0 mph 25.3 mph N/A   Scattered Clouds
8:53 PM 78.1 °F 45.0 °F 31% 29.94 in 10.0 mi ENE 11.5 mph - N/A   Clear
9:53 PM 68.0 °F 48.0 °F 49% 29.96 in 10.0 mi NNW 10.4 mph - N/A   Clear
11:53 PM 69.1 °F 48.9 °F 49% 29.98 in 10.0 mi West 9.2 mph - N/A   Partly Cloudy